Dundee, United Kingdom

10:32 PM BST on September 25, 2016 (GMT +0100)
Dundee

Weather History for EGPN - January, 2013

Change the Weather History Date:

Tuesday, January 29, 2013

  Actual Average Record
Temperature  
Mean Temperature 45 °F -  
Max Temperature 48 °F 43 °F 50 °F (2005)
Min Temperature 42 °F 36 °F 28 °F (2001)
Degree Days  
Heating Degree Days 20    
Moisture  
Dew Point 40 °F    
Average Humidity 85    
Maximum Humidity 100    
Minimum Humidity 71    
Precipitation  
Precipitation 0.00 in - - ()
Sea Level Pressure  
Sea Level Pressure 29.10 in    
Wind  
Wind Speed 17 mph ()    
Max Wind Speed 40 mph    
Max Gust Speed 55 mph    
Visibility 5.7 miles    
Events Rain    
Averages and records for this station are not official NWS values.
T = Trace of Precipitation, MM = Missing Value Source: Averaged Metar Reports

Daily Weather History Graph

Daily Weather History Graph

Search for Another Location

Airport or City:

Trip Planner

Search our weather history database for the weather conditions in past years. The results will help you decide how hot, cold, wet, or windy it might be!

Date:

Astronomy

Jan. 29, 2013 Rise Set
Actual Time 8:14 AM GMT 4:36 PM GMT
Civil Twilight 7:31 AM GMT 5:19 PM GMT
Nautical Twilight 6:46 AM GMT 6:05 PM GMT
Astronomical Twilight 6:01 AM GMT 6:49 PM GMT
Moon 8:00 PM GMT (1/29) 8:26 AM GMT (1/29)
Length of Visible Light 9h 47m
Length of Day
8h 22m
Waning Gibbous, 95% of the Moon is Illuminated
Jan 29
Waning Gibbous
Feb 3
Last Quarter
Feb 10
New
Feb 17
First Quarter
Feb 25
Full

Hourly Weather History & Observations

Time (GMT) Temp. Windchill Dew Point Humidity Pressure Visibility Wind Dir Wind Speed Gust Speed Precip Events Conditions
6:50 AM 42.8 °F 32.9 °F 39.2 °F 87% 29.24 in 6.2 mi WSW 26.5 mph - N/A   Scattered Clouds
7:20 AM 42.8 °F 33.8 °F 39.2 °F 87% 29.24 in 6.2 mi West 21.9 mph - N/A   Partly Cloudy
7:50 AM 44.6 °F 37.2 °F 41.0 °F 87% 29.27 in 6.2 mi West 17.3 mph - N/A   Partly Cloudy
8:20 AM 42.8 °F 34.8 °F 39.2 °F 87% 29.27 in 6.2 mi West 17.3 mph - N/A   Partly Cloudy
8:50 AM 42.8 °F 35.4 °F 39.2 °F 87% 29.27 in 6.2 mi WSW 15.0 mph - N/A   Scattered Clouds
9:20 AM 42.8 °F 36.6 °F 39.2 °F 87% 29.27 in 6.2 mi West 11.5 mph - N/A   Scattered Clouds
9:50 AM 44.6 °F 40.2 °F 41.0 °F 87% 29.27 in 6.2 mi West 8.1 mph - N/A   Scattered Clouds
10:20 AM 42.8 °F 36.6 °F 39.2 °F 87% 29.27 in 6.2 mi WSW 11.5 mph - N/A   Scattered Clouds
10:50 AM 42.8 °F 38.0 °F 39.2 °F 87% 29.24 in 6.2 mi WSW 8.1 mph - N/A   Scattered Clouds
11:20 AM 44.6 °F 41.4 °F 41.0 °F 87% 29.27 in 6.2 mi WSW 5.8 mph - N/A   Scattered Clouds
11:50 AM 44.6 °F 39.2 °F 41.0 °F 87% 29.24 in 6.2 mi South 10.4 mph - N/A   Scattered Clouds
12:20 PM 42.8 °F 38.6 °F 39.2 °F 87% 29.24 in 6.2 mi South 6.9 mph - N/A   Scattered Clouds
12:50 PM 44.6 °F 42.2 °F 41.0 °F 87% 29.21 in 6.2 mi ESE 4.6 mph - N/A   Scattered Clouds
1:20 PM 44.6 °F 40.7 °F 41.0 °F 87% 29.18 in 6.2 mi East 6.9 mph - N/A   Mostly Cloudy
1:50 PM 44.6 °F 40.2 °F 41.0 °F 87% 29.15 in 5.6 mi ENE 8.1 mph - N/A Rain Light Rain
2:20 PM 42.8 °F 36.6 °F 42.8 °F 100% 29.09 in 5.0 mi East 11.5 mph - N/A Rain Light Rain
2:50 PM 42.8 °F 36.6 °F 42.8 °F 100% 29.06 in 4.3 mi ESE 11.5 mph - N/A Rain Light Rain
3:20 PM 44.6 °F 39.7 °F 42.8 °F 93% 29.03 in 4.3 mi East 9.2 mph - N/A Rain Light Rain
3:50 PM 44.6 °F 39.7 °F 42.8 °F 93% 29.00 in 3.7 mi ENE 9.2 mph - N/A Rain Heavy Rain
4:20 PM 44.6 °F 41.4 °F 42.8 °F 93% 28.97 in 3.7 mi ENE 5.8 mph - N/A Rain Rain
4:50 PM 46.4 °F 43.5 °F 42.8 °F 87% 28.91 in 3.7 mi NE 5.8 mph - N/A Rain Light Rain
5:20 PM 48.2 °F - 46.4 °F 93% 28.91 in 3.7 mi SSW 21.9 mph - N/A Rain Heavy Rain
5:50 PM 46.4 °F 36.9 °F 42.8 °F 87% 28.91 in 6.2 mi WSW 32.2 mph 48.3 mph N/A   Mostly Cloudy
6:20 PM 46.4 °F 36.9 °F 41.0 °F 81% 28.94 in 6.2 mi WSW 32.2 mph - N/A   Scattered Clouds
6:50 PM 46.4 °F 37.2 °F 41.0 °F 81% 28.94 in 6.2 mi WSW 29.9 mph - N/A   Scattered Clouds
7:20 PM 46.4 °F 35.8 °F 37.4 °F 71% 28.94 in 6.2 mi WSW 40.3 mph - N/A   Scattered Clouds
7:50 PM 46.4 °F 36.4 °F 37.4 °F 71% 28.94 in 6.2 mi WSW 35.7 mph 49.5 mph N/A   Scattered Clouds
8:20 PM 44.6 °F 33.9 °F 37.4 °F 76% 28.97 in 6.2 mi WSW 35.7 mph 48.3 mph N/A   Scattered Clouds
8:50 PM 44.6 °F 33.9 °F 37.4 °F 76% 28.97 in 6.2 mi WSW 35.7 mph 47.2 mph N/A   Scattered Clouds
9:20 PM 44.6 °F 34.4 °F 39.2 °F 81% 28.97 in 6.2 mi WSW 32.2 mph - N/A   Scattered Clouds
9:50 PM 44.6 °F 33.3 °F 39.2 °F 81% 29.00 in 6.2 mi WSW 40.3 mph 55.2 mph N/A   Scattered Clouds
10:20 PM 44.6 °F 33.9 °F 37.4 °F 76% 29.00 in 6.2 mi WSW 35.7 mph - N/A   Scattered Clouds
10:50 PM 44.6 °F 33.6 °F 37.4 °F 76% 29.00 in 6.2 mi WSW 38.0 mph - N/A   Scattered Clouds